Location: *
(50.2903°S, 172.5375°W)
Time: 09:38:16
(UTC+00:00)

Resurs 1-4 Rocket - Pass Details

Date: 24 February 2020
Orbit: 800 x 814 km, 98.6° (Epoch: 07 April)

Event Time Altitude Azimuth Distance (km) Brightness Sun altitude
Exits shadow 11:38:46 54° 128° (SE) 991 2.6 -30.1°
Drops below altitude 10° 11:43:37 10° 188° (S) 2,421 5.5 -30.2°
Sets 11:46:01 0° 191° (SSW) 3,357 6.4 -30.2°
